This demonstration page uses our WeatherBlox Daily Observations layout. Learn more.

Left ArrowRight Arrow

36.17497, -115.13722

Hourly Observations for August 7, 2020

Temp ( °F °C ) Dew Point ( °F °C ) Humidity (%) Winds ( mph kmh ) Pressure ( in mb ) Visibility ( mi km ) Precip ( " mm )
12:53 am 00:53 Clear 81 27.2 27 -2.8 14 14 ESE 3 6 29.75 1008 10 16 N/A
1:53 am 01:53 Clear 82 27.8 26 -3.3 13 13 ENE 5 7 29.76 1008 10 16 N/A
2:53 am 02:53 Clear 80 26.7 27 -2.8 14 14 NW 5 7 29.77 1008 10 16 N/A
3:53 am 03:53 Clear 77 25 28 -2.2 16 16 N N/A 29.78 1008 10 16 N/A
4:53 am 04:53 Clear 76 24.4 29 -1.7 18 18 N 3 6 29.79 1009 10 16 N/A
5:53 am 05:53 Clear 73 22.8 29 -1.7 19 19 NW 7 11 29.82 1010 10 16 N/A
6:53 am 06:53 Sunny 75 23.9 30 -1.1 19 19 NNW 7 11 29.83 1010 10 16 N/A
7:53 am 07:53 Sunny 82 27.8 29 -1.7 14 14 N N/A 29.85 1011 10 16 N/A
8:53 am 08:53 Sunny 85 29.4 33 0.6 15 15 ESE 6 9 29.87 1012 10 16 N/A
9:53 am 09:53 Sunny 89 31.7 33 0.6 14 14 E 6 9 29.88 1012 10 16 N/A
10:53 am 10:53 Sunny 91 32.8 30 -1.1 11 11 ESE 6 9 29.88 1012 10 16 N/A
11:53 am 11:53 Sunny 93 33.9 28 -2.2 10 10 ESE 5 7 29.87 1012 10 16 N/A
12:53 pm 12:53 Sunny 95 35 25 -3.9 8 8 SSW 5 7 29.87 1011 10 16 N/A
1:53 pm 13:53 Sunny 98 36.7 25 -3.9 7 7 N N/A 29.84 1011 10 16 N/A
2:53 pm 14:53 Sunny 99 37.2 24 -4.4 7 7 SE 9 15 29.82 1010 10 16 N/A
3:53 pm 15:53 Sunny 101 38.3 23 -5 6 6 SE 14 22 29.80 1009 10 16 N/A
4:53 pm 16:53 Sunny 101 38.3 22 -5.6 6 6 ESE 10 17 29.78 1009 10 16 N/A
5:53 pm 17:53 Sunny 100 37.8 22 -5.6 6 6 ESE 8 13 29.78 1009 10 16 N/A
6:53 pm 18:53 Sunny 99 37.2 21 -6.1 6 6 ESE 14 22 29.79 1009 10 16 N/A
7:53 pm 19:53 Clear 97 36.1 22 -5.6 7 7 ESE 17 28 29.78 1008 10 16 N/A
8:53 pm 20:53 Clear 95 35 23 -5 7 7 SE 14 22 29.79 1009 10 16 N/A
9:53 pm 21:53 Clear 92 33.3 26 -3.3 9 9 SSW 9 15 29.82 1010 10 16 N/A
10:53 pm 22:53 Clear 91 32.8 23 -5 8 8 SW 8 13 29.84 1010 10 16 N/A
11:53 pm 23:53 Clear 89 31.7 24 -4.4 9 9 WSW 3 6 29.85 1011 10 16 N/A

Powered by AerisWeather